Time,TemperatureF,DewpointF,PressureIn,WindDirection,WindDirectionDegrees,WindSpeedMPH,WindSpeedGustMPH,Humidity,HourlyPrecipIn,Conditions,Clouds,dailyrainin,SoftwareType,DateUTC
2013-01-12 00:00:00,46.9,46.7,29.91,NE,45,1.1,1.1,99,0.00,CLR,,0.56,WeatherDisplay:10.37,2013-01-12 05:00:00,
2013-01-12 00:01:00,46.9,46.7,29.91,East,90,2.2,0.0,99,0.00,RA,,0.00,WeatherDisplay:10.37,2013-01-12 05:01:00,
2013-01-12 00:06:00,46.9,46.7,29.91,NE,45,2.3,0.0,99,0.00,RA,,0.00,WeatherDisplay:10.37,2013-01-12 05:06:00,
2013-01-12 00:11:00,46.9,46.7,29.91,SE,135,2.3,0.0,99,0.00,CLR,,0.00,WeatherDisplay:10.37,2013-01-12 05:11:00,
2013-01-12 00:16:00,46.9,46.7,29.91,NE,45,1.1,0.0,99,0.00,CLR,,0.00,WeatherDisplay:10.37,2013-01-12 05:16:00,
2013-01-12 00:21:00,46.9,46.7,29.91,NE,45,0.0,0.0,99,0.00,CLR,,0.00,WeatherDisplay:10.37,2013-01-12 05:21:00,
2013-01-12 00:26:00,46.9,46.7,29.91,NE,45,0.0,0.0,99,0.00,CLR,,0.00,WeatherDisplay:10.37,2013-01-12 05:26:00,
2013-01-12 00:31:00,46.9,46.7,29.91,NE,45,1.1,0.0,99,0.00,CLR,,0.00,WeatherDisplay:10.37,2013-01-12 05:31:00,
2013-01-12 00:36:00,46.9,46.7,29.91,NE,45,0.0,0.0,99,0.00,CLR,,0.00,WeatherDisplay:10.37,2013-01-12 05:36:00,
2013-01-12 00:41:00,46.9,46.7,29.91,West,270,0.0,0.0,99,0.00,CLR,,0.00,WeatherDisplay:10.37,2013-01-12 05:41:00,
2013-01-12 00:46:00,46.9,46.7,29.91,West,270,0.0,0.0,99,0.00,CLR,,0.00,WeatherDisplay:10.37,2013-01-12 05:46:00,
2013-01-12 00:51:00,46.9,46.7,29.91,West,270,0.0,0.0,99,0.00,CLR,,0.00,WeatherDisplay:10.37,2013-01-12 05:51:00,
2013-01-12 00:56:00,46.9,46.7,29.91,West,270,0.0,0.0,99,0.00,CLR,,0.00,WeatherDisplay:10.37,2013-01-12 05:56:00,
2013-01-12 01:01:00,46.9,46.7,29.91,South,180,2.3,2.3,99,0.00,CLR,,0.00,WeatherDisplay:10.37,2013-01-12 06:01:00,
2013-01-12 01:06:00,47.1,46.9,29.91,North,0,0.0,0.0,99,0.00,CLR,,0.00,WeatherDisplay:10.37,2013-01-12 06:06:00,
2013-01-12 01:11:00,47.1,46.9,29.91,NW,315,0.0,0.0,99,0.00,CLR,,0.00,WeatherDisplay:10.37,2013-01-12 06:11:00,
2013-01-12 01:16:00,47.1,46.9,29.91,NW,315,0.0,0.0,99,0.00,CLR,,0.00,WeatherDisplay:10.37,2013-01-12 06:16:00,
2013-01-12 01:21:00,47.1,46.9,29.91,NW,315,3.5,0.0,99,0.00,CLR,,0.00,WeatherDisplay:10.37,2013-01-12 06:21:00,
2013-01-12 01:26:00,47.1,46.9,29.91,NW,315,0.0,0.0,99,0.00,CLR,,0.00,WeatherDisplay:10.37,2013-01-12 06:26:00,
2013-01-12 01:31:00,47.1,46.9,29.92,West,270,1.1,0.0,99,0.00,CLR,,0.00,WeatherDisplay:10.37,2013-01-12 06:31:00,
2013-01-12 01:36:00,47.1,46.9,29.91,West,270,1.1,0.0,99,0.00,CLR,,0.00,WeatherDisplay:10.37,2013-01-12 06:36:00,
2013-01-12 01:41:00,47.1,46.9,29.92,West,270,1.1,0.0,99,0.00,CLR,,0.00,WeatherDisplay:10.37,2013-01-12 06:41:00,
2013-01-12 01:46:00,47.1,46.9,29.91,West,270,1.1,0.0,99,0.00,CLR,,0.00,WeatherDisplay:10.37,2013-01-12 06:46:00,
2013-01-12 01:51:00,47.1,46.9,29.92,West,270,0.0,0.0,99,0.00,CLR,,0.00,WeatherDisplay:10.37,2013-01-12 06:51:00,
2013-01-12 01:56:00,47.1,46.9,29.92,North,0,2.3,0.0,99,0.00,CLR,,0.00,WeatherDisplay:10.37,2013-01-12 06:56:00,
2013-01-12 02:01:00,47.1,46.9,29.92,West,270,0.0,0.0,99,0.00,CLR,,0.00,WeatherDisplay:10.37,2013-01-12 07:01:00,
2013-01-12 02:06:00,47.1,46.9,29.92,West,270,1.1,0.0,99,0.00,CLR,,0.00,WeatherDisplay:10.37,2013-01-12 07:06:00,
2013-01-12 02:11:00,47.1,46.9,29.92,WNW,292,1.1,0.0,99,0.00,CLR,,0.00,WeatherDisplay:10.37,2013-01-12 07:11:00,
2013-01-12 02:16:00,47.1,46.9,29.92,West,270,0.0,0.0,99,0.00,CLR,,0.00,WeatherDisplay:10.37,2013-01-12 07:16:00,
2013-01-12 02:21:00,47.1,46.9,29.92,West,270,2.3,0.0,99,0.00,CLR,,0.00,WeatherDisplay:10.37,2013-01-12 07:21:00,
2013-01-12 02:27:00,47.1,46.9,29.92,NW,315,1.1,1.1,99,0.00,CLR,,0.00,WeatherDisplay:10.37,2013-01-12 07:27:00,
2013-01-12 02:32:00,47.1,46.9,29.92,NW,315,1.1,0.0,99,0.00,CLR,,0.00,WeatherDisplay:10.37,2013-01-12 07:32:00,
2013-01-12 02:37:00,47.1,46.9,29.92,West,270,2.3,2.3,99,0.00,CLR,,0.00,WeatherDisplay:10.37,2013-01-12 07:37:00,
2013-01-12 02:42:00,47.1,46.9,29.92,NW,315,3.5,0.0,99,0.00,CLR,,0.00,WeatherDisplay:10.37,2013-01-12 07:42:00,
2013-01-12 02:47:00,47.1,46.9,29.92,NW,315,3.5,3.5,99,0.00,CLR,,0.00,WeatherDisplay:10.37,2013-01-12 07:47:00,
2013-01-12 02:52:00,47.1,46.9,29.92,NW,315,3.5,0.0,99,0.00,CLR,,0.00,WeatherDisplay:10.37,2013-01-12 07:52:00,
2013-01-12 02:57:00,47.1,46.9,29.92,NW,315,2.3,0.0,99,0.00,CLR,,0.00,WeatherDisplay:10.37,2013-01-12 07:57:00,
2013-01-12 03:02:00,47.1,46.9,29.93,North,0,2.3,2.3,99,0.00,CLR,,0.00,WeatherDisplay:10.37,2013-01-12 08:02:00,
2013-01-12 03:07:00,47.1,46.9,29.93,West,270,2.3,0.0,99,0.00,CLR,,0.00,WeatherDisplay:10.37,2013-01-12 08:07:00,
2013-01-12 03:12:00,46.9,46.7,29.93,NW,315,3.5,3.5,99,0.00,CLR,,0.00,WeatherDisplay:10.37,2013-01-12 08:12:00,
2013-01-12 03:17:00,46.9,46.7,29.93,NW,315,3.5,3.5,99,0.00,CLR,,0.00,WeatherDisplay:10.37,2013-01-12 08:17:00,
2013-01-12 03:22:00,46.9,46.7,29.93,NW,315,2.3,0.0,99,0.00,CLR,,0.00,WeatherDisplay:10.37,2013-01-12 08:22:00,
2013-01-12 03:27:00,46.8,46.5,29.92,NW,315,3.5,0.0,99,0.00,CLR,,0.00,WeatherDisplay:10.37,2013-01-12 08:27:00,
2013-01-12 03:32:00,46.8,46.5,29.91,North,0,0.0,0.7,99,0.00,CLR,,0.00,WeatherDisplay:10.37,2013-01-12 08:32:00,
2013-01-12 03:37:00,46.8,46.5,29.91,NNW,338,2.3,0.0,99,0.00,CLR,,0.00,WeatherDisplay:10.37,2013-01-12 08:37:00,
2013-01-12 03:42:00,46.8,46.5,29.92,NW,315,3.5,3.5,99,0.00,CLR,,0.00,WeatherDisplay:10.37,2013-01-12 08:42:00,
2013-01-12 03:47:00,46.8,46.5,29.92,NW,315,3.5,0.0,99,0.00,CLR,,0.00,WeatherDisplay:10.37,2013-01-12 08:47:00,
2013-01-12 03:52:00,46.8,46.5,29.91,NNW,338,2.3,0.0,99,0.00,CLR,,0.00,WeatherDisplay:10.37,2013-01-12 08:52:00,
2013-01-12 03:57:00,46.8,46.5,29.91,North,0,3.5,0.0,99,0.00,CLR,,0.00,WeatherDisplay:10.37,2013-01-12 08:57:00,
2013-01-12 04:02:00,46.6,46.3,29.92,NW,315,1.1,0.0,99,0.00,CLR,,0.00,WeatherDisplay:10.37,2013-01-12 09:02:00,
2013-01-12 04:07:00,46.6,46.3,29.92,NW,315,1.1,0.0,99,0.00,CLR,,0.00,WeatherDisplay:10.37,2013-01-12 09:07:00,
2013-01-12 04:12:00,46.6,46.3,29.91,NW,315,1.1,0.0,99,0.00,CLR,,0.00,WeatherDisplay:10.37,2013-01-12 09:12:00,
2013-01-12 04:17:00,46.6,46.3,29.91,North,0,1.1,0.0,99,0.00,CLR,,0.00,WeatherDisplay:10.37,2013-01-12 09:17:00,
2013-01-12 04:22:00,46.6,46.3,29.91,West,270,4.6,4.6,99,0.00,CLR,,0.00,WeatherDisplay:10.37,2013-01-12 09:22:00,
2013-01-12 04:27:00,46.6,46.3,29.91,North,0,3.5,3.5,99,0.00,CLR,,0.00,WeatherDisplay:10.37,2013-01-12 09:27:00,
2013-01-12 04:32:00,46.4,46.1,29.91,NW,315,3.5,3.5,99,0.00,CLR,,0.00,WeatherDisplay:10.37,2013-01-12 09:32:00,
2013-01-12 04:37:00,46.4,46.1,29.91,North,0,2.3,0.0,99,0.00,CLR,,0.00,WeatherDisplay:10.37,2013-01-12 09:37:00,
2013-01-12 04:42:00,46.4,46.1,29.91,NW,315,4.6,0.0,99,0.00,CLR,,0.00,WeatherDisplay:10.37,2013-01-12 09:42:00,
2013-01-12 04:47:00,46.4,46.1,29.91,North,0,3.5,0.0,99,0.00,CLR,,0.00,WeatherDisplay:10.37,2013-01-12 09:47:00,
2013-01-12 04:52:00,46.4,46.1,29.91,WNW,292,5.8,5.8,99,0.00,CLR,,0.00,WeatherDisplay:10.37,2013-01-12 09:52:00,
2013-01-12 04:57:00,46.2,46.0,29.91,NE,45,7.6,7.6,99,0.00,CLR,,0.00,WeatherDisplay:10.37,2013-01-12 09:57:00,
2013-01-12 05:02:00,46.2,46.0,29.92,WNW,292,3.5,0.0,99,0.00,CLR,,0.00,WeatherDisplay:10.37,2013-01-12 10:02:00,
2013-01-12 05:07:00,46.2,46.0,29.92,NW,315,2.3,2.3,99,0.00,CLR,,0.00,WeatherDisplay:10.37,2013-01-12 10:07:00,
2013-01-12 05:12:00,46.0,45.8,29.92,WNW,292,4.6,4.6,99,0.00,CLR,,0.00,WeatherDisplay:10.37,2013-01-12 10:12:00,
2013-01-12 05:17:00,46.0,45.8,29.92,NW,315,3.5,3.5,99,0.00,CLR,,0.00,WeatherDisplay:10.37,2013-01-12 10:17:00,
2013-01-12 05:22:00,45.9,45.6,29.93,West,270,3.5,3.5,99,0.00,CLR,,0.00,WeatherDisplay:10.37,2013-01-12 10:22:00,
2013-01-12 05:27:00,45.9,45.6,29.93,West,270,2.3,0.0,99,0.00,CLR,,0.00,WeatherDisplay:10.37,2013-01-12 10:27:00,
2013-01-12 05:32:00,45.9,45.6,29.93,NW,315,3.5,3.5,99,0.00,CLR,,0.00,WeatherDisplay:10.37,2013-01-12 10:32:00,
2013-01-12 05:37:00,45.9,45.6,29.94,West,270,3.5,3.5,99,0.00,CLR,,0.00,WeatherDisplay:10.37,2013-01-12 10:37:00,
2013-01-12 05:42:00,45.9,45.6,29.93,North,0,0.0,0.0,99,0.00,CLR,,0.00,WeatherDisplay:10.37,2013-01-12 10:42:00,
2013-01-12 05:47:00,45.9,45.6,29.93,West,270,1.1,0.0,99,0.00,CLR,,0.00,WeatherDisplay:10.37,2013-01-12 10:47:00,
2013-01-12 05:52:00,45.9,45.6,29.94,NW,315,2.3,0.0,99,0.00,CLR,,0.00,WeatherDisplay:10.37,2013-01-12 10:52:00,
2013-01-12 05:57:00,45.9,45.6,29.95,West,270,3.5,3.5,99,0.00,CLR,,0.00,WeatherDisplay:10.37,2013-01-12 10:57:00,
2013-01-12 06:02:00,45.9,45.6,29.94,NE,45,1.1,0.0,99,0.00,CLR,,0.00,WeatherDisplay:10.37,2013-01-12 11:02:00,
2013-01-12 06:07:00,45.7,45.4,29.94,NW,315,3.5,3.5,99,0.00,CLR,,0.00,WeatherDisplay:10.37,2013-01-12 11:07:00,
2013-01-12 06:12:00,45.7,45.4,29.94,NW,315,3.5,0.0,99,0.00,CLR,,0.00,WeatherDisplay:10.37,2013-01-12 11:12:00,
2013-01-12 06:17:00,45.7,45.4,29.93,NE,45,2.3,2.3,99,0.00,CLR,,0.00,WeatherDisplay:10.37,2013-01-12 11:17:00,
2013-01-12 06:22:00,45.7,45.4,29.93,NW,315,3.5,3.5,99,0.00,CLR,,0.00,WeatherDisplay:10.37,2013-01-12 11:22:00,
2013-01-12 06:27:00,45.7,45.4,29.94,North,0,1.1,2.2,99,0.00,CLR,,0.00,WeatherDisplay:10.37,2013-01-12 11:27:00,
2013-01-12 06:32:00,45.7,45.4,29.95,NW,315,2.3,0.0,99,0.00,CLR,,0.00,WeatherDisplay:10.37,2013-01-12 11:32:00,
2013-01-12 06:37:00,45.7,45.4,29.95,NW,315,1.1,1.6,99,0.00,CLR,,0.00,WeatherDisplay:10.37,2013-01-12 11:37:00,
2013-01-12 06:42:00,45.7,45.4,29.95,NW,315,3.5,3.5,99,0.00,CLR,,0.00,WeatherDisplay:10.37,2013-01-12 11:42:00,
2013-01-12 06:47:00,45.5,45.2,29.96,West,270,3.5,3.5,99,0.00,CLR,,0.00,WeatherDisplay:10.37,2013-01-12 11:47:00,
2013-01-12 06:52:00,45.5,45.2,29.95,WNW,292,0.0,0.0,99,0.00,CLR,,0.00,WeatherDisplay:10.37,2013-01-12 11:52:00,
2013-01-12 06:57:00,45.5,45.2,29.95,North,0,1.1,0.0,99,0.00,CLR,,0.00,WeatherDisplay:10.37,2013-01-12 11:57:00,
2013-01-12 07:02:00,45.5,45.2,29.95,NE,45,2.3,2.3,99,0.00,CLR,,0.00,WeatherDisplay:10.37,2013-01-12 12:02:00,
2013-01-12 07:07:00,45.5,45.2,29.95,North,0,1.1,0.0,99,0.00,CLR,,0.00,WeatherDisplay:10.37,2013-01-12 12:07:00,
2013-01-12 07:12:00,45.5,45.2,29.96,NW,315,2.3,0.0,99,0.00,CLR,,0.00,WeatherDisplay:10.37,2013-01-12 12:12:00,
2013-01-12 07:17:00,45.5,45.2,29.96,North,0,1.1,0.0,99,0.00,CLR,,0.00,WeatherDisplay:10.37,2013-01-12 12:17:00,
2013-01-12 07:22:00,45.5,45.2,29.96,North,0,2.3,0.0,99,0.00,CLR,,0.00,WeatherDisplay:10.37,2013-01-12 12:22:00,
2013-01-12 07:27:00,45.5,45.2,29.97,NW,315,4.6,0.0,99,0.00,CLR,,0.00,WeatherDisplay:10.37,2013-01-12 12:27:00,
2013-01-12 07:32:00,45.7,45.4,29.97,NW,315,0.0,0.0,99,0.00,CLR,,0.00,WeatherDisplay:10.37,2013-01-12 12:32:00,
2013-01-12 07:37:00,45.7,45.4,29.96,North,0,0.0,0.0,99,0.00,CLR,,0.00,WeatherDisplay:10.37,2013-01-12 12:37:00,
2013-01-12 07:43:00,45.7,45.4,29.97,NW,315,2.3,0.0,99,0.00,CLR,,0.00,WeatherDisplay:10.37,2013-01-12 12:43:00,
2013-01-12 07:48:00,45.7,45.4,29.98,NW,315,3.5,3.5,99,0.00,CLR,,0.00,WeatherDisplay:10.37,2013-01-12 12:48:00,
2013-01-12 07:53:00,45.7,45.4,29.98,NE,45,2.3,0.0,99,0.00,CLR,,0.00,WeatherDisplay:10.37,2013-01-12 12:53:00,
2013-01-12 07:58:00,45.9,45.6,29.98,North,0,0.0,0.0,99,0.00,CLR,,0.00,WeatherDisplay:10.37,2013-01-12 12:58:00,
2013-01-12 08:03:00,45.9,45.6,29.98,North,0,1.1,0.0,99,0.00,CLR,,0.00,WeatherDisplay:10.37,2013-01-12 13:03:00,
2013-01-12 08:08:00,46.0,45.8,29.98,North,0,0.0,0.7,99,0.00,CLR,,0.00,WeatherDisplay:10.37,2013-01-12 13:08:00,
2013-01-12 08:13:00,46.0,45.8,29.99,NW,315,0.0,0.0,99,0.00,CLR,,0.00,WeatherDisplay:10.37,2013-01-12 13:13:00,
2013-01-12 08:18:00,46.0,45.8,29.99,NW,315,2.3,0.0,99,0.00,CLR,,0.00,WeatherDisplay:10.37,2013-01-12 13:18:00,
2013-01-12 08:23:00,46.0,45.8,29.99,North,0,3.8,0.0,99,0.00,CLR,,0.00,WeatherDisplay:10.37,2013-01-12 13:23:00,
2013-01-12 08:28:00,46.0,45.8,29.99,North,0,2.3,2.3,99,0.00,CLR,,0.00,WeatherDisplay:10.37,2013-01-12 13:28:00,
2013-01-12 08:33:00,46.0,45.8,29.99,North,0,3.5,0.0,99,0.00,CLR,,0.00,WeatherDisplay:10.37,2013-01-12 13:33:00,
2013-01-12 08:38:00,46.2,46.0,29.99,NW,315,1.1,1.1,99,0.00,CLR,,0.00,WeatherDisplay:10.37,2013-01-12 13:38:00,
2013-01-12 08:43:00,46.2,46.0,29.99,NE,45,5.8,0.0,99,0.00,CLR,,0.00,WeatherDisplay:10.37,2013-01-12 13:43:00,
2013-01-12 08:48:00,46.4,46.1,29.99,North,0,3.5,3.5,99,0.00,CLR,,0.00,WeatherDisplay:10.37,2013-01-12 13:48:00,
2013-01-12 08:53:00,46.4,46.1,29.99,NW,315,3.5,0.0,99,0.00,CLR,,0.00,WeatherDisplay:10.37,2013-01-12 13:53:00,
2013-01-12 08:58:00,46.6,46.3,29.99,North,0,0.0,0.0,99,0.00,CLR,,0.00,WeatherDisplay:10.37,2013-01-12 13:58:00,
2013-01-12 09:03:00,46.6,46.3,30.00,NW,315,3.5,3.5,99,0.00,CLR,,0.00,WeatherDisplay:10.37,2013-01-12 14:03:00,
2013-01-12 09:08:00,46.6,46.3,29.99,NW,315,0.0,0.0,99,0.00,CLR,,0.00,WeatherDisplay:10.37,2013-01-12 14:08:00,
2013-01-12 09:13:00,46.8,46.5,29.99,NW,315,3.5,3.5,99,0.00,CLR,,0.00,WeatherDisplay:10.37,2013-01-12 14:13:00,
2013-01-12 09:18:00,46.6,46.3,29.99,NW,315,5.8,5.8,99,0.00,CLR,,0.00,WeatherDisplay:10.37,2013-01-12 14:18:00,
2013-01-12 09:23:00,46.6,46.3,29.99,NW,315,3.5,3.5,99,0.00,CLR,,0.00,WeatherDisplay:10.37,2013-01-12 14:23:00,
2013-01-12 09:28:00,46.8,46.5,29.99,NW,315,2.3,0.0,99,0.00,CLR,,0.00,WeatherDisplay:10.37,2013-01-12 14:28:00,
2013-01-12 09:33:00,46.9,46.7,29.99,North,0,1.1,0.0,99,0.00,CLR,,0.00,WeatherDisplay:10.37,2013-01-12 14:33:00,
2013-01-12 09:38:00,47.3,47.0,29.99,NNE,22,2.3,0.0,99,0.00,CLR,,0.00,WeatherDisplay:10.37,2013-01-12 14:38:00,
2013-01-12 09:43:00,47.5,47.2,29.99,NE,45,1.1,0.0,99,0.00,CLR,,0.00,WeatherDisplay:10.37,2013-01-12 14:43:00,
2013-01-12 09:48:00,47.7,47.4,30.00,NW,315,2.3,0.0,99,0.00,CLR,,0.00,WeatherDisplay:10.37,2013-01-12 14:48:00,
2013-01-12 09:53:00,47.8,47.6,30.00,NW,315,2.3,2.3,99,0.00,CLR,,0.00,WeatherDisplay:10.37,2013-01-12 14:53:00,
2013-01-12 09:58:00,47.8,47.6,30.00,NW,315,3.5,0.0,99,0.00,CLR,,0.00,WeatherDisplay:10.37,2013-01-12 14:58:00,
2013-01-12 10:03:00,47.7,47.4,30.00,SW,225,2.3,0.0,99,0.00,CLR,,0.00,WeatherDisplay:10.37,2013-01-12 15:03:00,
2013-01-12 10:08:00,47.8,47.6,30.00,East,90,2.3,2.3,99,0.00,CLR,,0.00,WeatherDisplay:10.37,2013-01-12 15:08:00,
2013-01-12 10:13:00,48.0,47.8,30.00,NW,315,1.1,0.0,99,0.00,CLR,,0.00,WeatherDisplay:10.37,2013-01-12 15:13:00,
2013-01-12 10:18:00,48.2,47.9,30.00,NW,315,3.5,3.5,99,0.00,CLR,,0.00,WeatherDisplay:10.37,2013-01-12 15:18:00,
2013-01-12 10:23:00,48.2,47.9,30.00,NW,315,3.5,0.0,99,0.00,CLR,,0.00,WeatherDisplay:10.37,2013-01-12 15:23:00,
2013-01-12 10:28:00,48.0,47.8,29.99,NE,45,5.8,5.8,99,0.00,CLR,,0.00,WeatherDisplay:10.37,2013-01-12 15:28:00,
2013-01-12 10:33:00,48.0,47.8,29.99,North,0,0.0,0.0,99,0.00,CLR,,0.00,WeatherDisplay:10.37,2013-01-12 15:33:00,
2013-01-12 10:38:00,48.0,47.8,30.00,NW,315,2.3,2.3,99,0.00,CLR,,0.00,WeatherDisplay:10.37,2013-01-12 15:38:00,
2013-01-12 10:43:00,48.2,47.9,29.99,NE,45,2.3,0.0,99,0.00,CLR,,0.00,WeatherDisplay:10.37,2013-01-12 15:43:00,
2013-01-12 10:48:00,48.2,47.9,29.99,NE,45,3.5,3.5,99,0.00,CLR,,0.00,WeatherDisplay:10.37,2013-01-12 15:48:00,
2013-01-12 10:53:00,48.4,48.1,29.99,NW,315,4.6,4.6,99,0.00,CLR,,0.00,WeatherDisplay:10.37,2013-01-12 15:53:00,
2013-01-12 10:58:00,48.6,48.3,29.99,WNW,292,3.5,3.5,99,0.00,CLR,,0.00,WeatherDisplay:10.37,2013-01-12 15:58:00,
2013-01-12 11:03:00,48.6,48.3,29.99,NE,45,4.6,4.6,99,0.00,CLR,,0.00,WeatherDisplay:10.37,2013-01-12 16:03:00,
2013-01-12 11:08:00,48.6,48.3,29.98,NE,45,3.5,0.0,99,0.00,CLR,,0.00,WeatherDisplay:10.37,2013-01-12 16:08:00,
2013-01-12 11:13:00,48.6,48.3,29.99,North,0,5.8,5.8,99,0.00,CLR,,0.00,WeatherDisplay:10.37,2013-01-12 16:13:00,
2013-01-12 11:18:00,48.6,48.3,29.99,North,0,3.5,3.5,99,0.00,CLR,,0.00,WeatherDisplay:10.37,2013-01-12 16:18:00,
2013-01-12 11:23:00,48.7,48.5,29.99,North,0,3.5,3.5,99,0.00,CLR,,0.00,WeatherDisplay:10.37,2013-01-12 16:23:00,
2013-01-12 11:28:00,48.7,48.5,29.98,North,0,5.8,5.8,99,0.00,CLR,,0.00,WeatherDisplay:10.37,2013-01-12 16:28:00,
2013-01-12 11:33:00,48.7,48.5,29.98,North,0,3.5,0.0,99,0.00,CLR,,0.00,WeatherDisplay:10.37,2013-01-12 16:33:00,
2013-01-12 11:38:00,49.1,48.8,29.99,NNW,338,3.5,3.5,99,0.00,CLR,,0.00,WeatherDisplay:10.37,2013-01-12 16:38:00,
2013-01-12 11:43:00,49.1,48.8,29.98,North,0,1.1,1.1,99,0.00,CLR,,0.00,WeatherDisplay:10.37,2013-01-12 16:43:00,
2013-01-12 11:48:00,48.9,48.7,29.98,NW,315,3.5,0.0,99,0.00,CLR,,0.00,WeatherDisplay:10.37,2013-01-12 16:48:00,
2013-01-12 11:53:00,48.9,48.7,29.98,NE,45,3.5,3.5,99,0.00,CLR,,0.00,WeatherDisplay:10.37,2013-01-12 16:53:00,
2013-01-12 11:58:00,48.7,48.5,29.98,North,0,3.5,3.5,99,0.00,CLR,,0.00,WeatherDisplay:10.37,2013-01-12 16:58:00,
2013-01-12 12:03:00,48.7,48.5,29.98,NW,315,2.3,2.3,99,0.00,CLR,,0.00,WeatherDisplay:10.37,2013-01-12 17:03:00,
2013-01-12 12:08:00,48.9,48.7,29.97,NE,45,3.5,0.0,99,0.00,CLR,,0.00,WeatherDisplay:10.37,2013-01-12 17:08:00,
2013-01-12 12:13:00,49.5,49.2,29.98,NE,45,0.0,0.0,99,0.00,CLR,,0.00,WeatherDisplay:10.37,2013-01-12 17:13:00,
2013-01-12 12:18:00,49.8,49.6,29.98,North,0,1.1,0.0,99,0.00,CLR,,0.00,WeatherDisplay:10.37,2013-01-12 17:18:00,
2013-01-12 12:23:00,49.8,49.6,29.98,North,0,2.3,0.0,99,0.00,CLR,,0.00,WeatherDisplay:10.37,2013-01-12 17:23:00,
2013-01-12 12:28:00,49.6,49.4,29.98,North,0,2.3,2.3,99,0.00,CLR,,0.00,WeatherDisplay:10.37,2013-01-12 17:28:00,
2013-01-12 12:33:00,49.6,49.1,29.98,NW,315,3.5,3.5,98,0.00,CLR,,0.00,WeatherDisplay:10.37,2013-01-12 17:33:00,
2013-01-12 12:38:00,49.6,48.8,29.98,NW,315,2.3,0.0,97,0.00,CLR,,0.00,WeatherDisplay:10.37,2013-01-12 17:38:00,
2013-01-12 12:43:00,49.5,48.6,29.98,NW,315,2.3,0.0,97,0.00,CLR,,0.00,WeatherDisplay:10.37,2013-01-12 17:43:00,
2013-01-12 12:48:00,49.5,48.6,29.98,South,180,1.1,0.0,97,0.00,CLR,,0.00,WeatherDisplay:10.37,2013-01-12 17:48:00,
2013-01-12 12:53:00,49.8,49.0,29.98,North,0,0.0,0.0,97,0.00,CLR,,0.00,WeatherDisplay:10.37,2013-01-12 17:53:00,
2013-01-12 12:58:00,49.5,48.6,29.98,NE,45,2.3,2.3,97,0.00,CLR,,0.00,WeatherDisplay:10.37,2013-01-12 17:58:00,
2013-01-12 13:03:00,49.3,48.2,29.98,NE,45,3.5,0.0,96,0.00,CLR,,0.00,WeatherDisplay:10.37,2013-01-12 18:03:00,
2013-01-12 13:08:00,49.3,48.2,29.98,NE,45,0.0,0.7,96,0.00,CLR,,0.00,WeatherDisplay:10.37,2013-01-12 18:08:00,
2013-01-12 13:13:00,49.3,47.9,29.99,North,0,3.5,3.5,95,0.00,CLR,,0.00,WeatherDisplay:10.37,2013-01-12 18:13:00,
2013-01-12 13:18:00,49.3,47.9,29.99,NE,45,1.1,0.0,95,0.00,CLR,,0.00,WeatherDisplay:10.37,2013-01-12 18:18:00,
2013-01-12 13:23:00,49.3,47.9,29.99,NW,315,1.1,1.1,95,0.00,CLR,,0.00,WeatherDisplay:10.37,2013-01-12 18:23:00,
2013-01-12 13:28:00,49.3,47.9,29.99,North,0,3.5,0.0,95,0.00,CLR,,0.00,WeatherDisplay:10.37,2013-01-12 18:28:00,
2013-01-12 13:34:00,49.5,48.1,29.99,North,0,0.0,0.0,95,0.00,CLR,,0.00,WeatherDisplay:10.37,2013-01-12 18:34:00,
2013-01-12 13:38:00,49.5,47.8,30.00,West,270,0.0,0.0,94,0.00,CLR,,0.00,WeatherDisplay:10.37,2013-01-12 18:38:00,
2013-01-12 13:44:00,49.8,48.2,30.00,NW,315,1.1,0.0,94,0.00,CLR,,0.00,WeatherDisplay:10.37,2013-01-12 18:44:00,
2013-01-12 13:49:00,49.6,48.0,29.99,NE,45,2.3,2.3,94,0.00,CLR,,0.00,WeatherDisplay:10.37,2013-01-12 18:49:00,
2013-01-12 13:54:00,49.5,47.8,30.00,NE,45,2.3,2.3,94,0.00,CLR,,0.00,WeatherDisplay:10.37,2013-01-12 18:54:00,
2013-01-12 13:59:00,49.5,47.5,29.99,North,0,2.3,2.3,93,0.00,CLR,,0.00,WeatherDisplay:10.37,2013-01-12 18:59:00,
2013-01-12 14:04:00,49.5,47.5,29.99,North,0,3.5,0.0,93,0.00,CLR,,0.00,WeatherDisplay:10.37,2013-01-12 19:04:00,
2013-01-12 14:09:00,49.6,47.7,29.99,North,0,3.5,3.5,93,0.00,CLR,,0.00,WeatherDisplay:10.37,2013-01-12 19:09:00,
2013-01-12 14:14:00,49.8,47.9,29.99,NE,45,1.1,0.0,93,0.00,CLR,,0.00,WeatherDisplay:10.37,2013-01-12 19:14:00,
2013-01-12 14:19:00,49.8,47.9,29.99,NNE,22,3.5,3.5,93,0.00,CLR,,0.00,WeatherDisplay:10.37,2013-01-12 19:19:00,
2013-01-12 14:24:00,49.6,47.4,29.99,NW,315,3.5,3.5,92,0.00,CLR,,0.00,WeatherDisplay:10.37,2013-01-12 19:24:00,
2013-01-12 14:29:00,49.6,47.4,29.99,North,0,0.0,0.0,92,0.00,CLR,,0.00,WeatherDisplay:10.37,2013-01-12 19:29:00,
2013-01-12 14:34:00,49.6,47.1,29.99,NW,315,2.3,2.3,91,0.00,CLR,,0.00,WeatherDisplay:10.37,2013-01-12 19:34:00,
2013-01-12 14:39:00,49.6,47.1,29.99,North,0,3.5,0.0,91,0.00,CLR,,0.00,WeatherDisplay:10.37,2013-01-12 19:39:00,
2013-01-12 14:44:00,49.8,47.3,29.99,North,0,3.5,3.5,91,0.00,CLR,,0.00,WeatherDisplay:10.37,2013-01-12 19:44:00,
2013-01-12 14:49:00,49.8,47.0,29.99,North,0,3.5,3.5,90,0.00,CLR,,0.00,WeatherDisplay:10.37,2013-01-12 19:49:00,
2013-01-12 14:54:00,49.8,47.0,29.99,North,0,3.5,0.0,90,0.00,CLR,,0.00,WeatherDisplay:10.37,2013-01-12 19:54:00,
2013-01-12 14:59:00,49.8,47.0,29.99,NE,45,3.5,3.5,90,0.00,CLR,,0.00,WeatherDisplay:10.37,2013-01-12 19:59:00,
2013-01-12 15:04:00,49.6,46.5,29.98,NE,45,3.5,0.0,89,0.00,CLR,,0.00,WeatherDisplay:10.37,2013-01-12 20:04:00,
2013-01-12 15:09:00,49.5,46.4,29.98,NNE,22,4.6,4.6,89,0.00,CLR,,0.00,WeatherDisplay:10.37,2013-01-12 20:09:00,
2013-01-12 15:14:00,49.3,46.2,29.98,North,0,3.5,3.5,89,0.00,CLR,,0.00,WeatherDisplay:10.37,2013-01-12 20:14:00,
2013-01-12 15:19:00,49.1,46.0,29.97,NE,45,3.5,3.5,89,0.00,CLR,,0.00,WeatherDisplay:10.37,2013-01-12 20:19:00,
2013-01-12 15:24:00,49.1,46.0,29.98,NE,45,1.1,0.0,89,0.00,CLR,,0.00,WeatherDisplay:10.37,2013-01-12 20:24:00,
2013-01-12 15:29:00,49.1,46.0,29.98,SE,135,0.0,0.0,89,0.00,CLR,,0.00,WeatherDisplay:10.37,2013-01-12 20:29:00,
2013-01-12 15:34:00,48.9,45.8,29.97,East,90,3.5,3.5,89,0.00,CLR,,0.00,WeatherDisplay:10.37,2013-01-12 20:34:00,
2013-01-12 15:39:00,48.6,45.2,29.98,SE,135,1.1,1.1,88,0.00,CLR,,0.00,WeatherDisplay:10.37,2013-01-12 20:39:00,
2013-01-12 15:44:00,48.6,45.2,29.98,NE,45,1.1,0.0,88,0.00,CLR,,0.00,WeatherDisplay:10.37,2013-01-12 20:44:00,
2013-01-12 15:49:00,48.4,45.3,29.99,NE,45,0.0,0.0,89,0.00,CLR,,0.00,WeatherDisplay:10.37,2013-01-12 20:49:00,
2013-01-12 15:54:00,48.0,44.9,29.99,North,0,3.5,3.5,89,0.00,CLR,,0.00,WeatherDisplay:10.37,2013-01-12 20:54:00,
2013-01-12 15:59:00,47.7,44.6,29.99,NE,45,3.5,3.5,89,0.00,CLR,,0.00,WeatherDisplay:10.37,2013-01-12 20:59:00,
2013-01-12 16:04:00,47.7,44.6,29.99,NE,45,2.3,0.0,89,0.00,CLR,,0.00,WeatherDisplay:10.37,2013-01-12 21:04:00,
2013-01-12 16:09:00,47.7,44.9,29.99,NE,45,2.3,0.0,90,0.00,CLR,,0.00,WeatherDisplay:10.37,2013-01-12 21:09:00,
2013-01-12 16:14:00,47.5,44.7,29.99,NE,45,2.3,0.0,90,0.00,CLR,,0.00,WeatherDisplay:10.37,2013-01-12 21:14:00,
2013-01-12 16:19:00,47.5,44.7,30.00,SE,135,3.5,0.0,90,0.00,CLR,,0.00,WeatherDisplay:10.37,2013-01-12 21:19:00,
2013-01-12 16:24:00,47.3,44.5,30.00,North,0,3.5,3.5,90,0.00,CLR,,0.00,WeatherDisplay:10.37,2013-01-12 21:24:00,
2013-01-12 16:29:00,47.3,44.5,29.99,NE,45,0.0,0.0,90,0.00,CLR,,0.00,WeatherDisplay:10.37,2013-01-12 21:29:00,
2013-01-12 16:34:00,47.1,44.6,29.99,East,90,3.5,3.5,91,0.00,CLR,,0.00,WeatherDisplay:10.37,2013-01-12 21:34:00,
2013-01-12 16:39:00,46.9,44.4,30.00,NE,45,4.6,4.6,91,0.00,CLR,,0.00,WeatherDisplay:10.37,2013-01-12 21:39:00,
2013-01-12 16:44:00,46.8,44.3,30.00,NE,45,4.6,4.6,91,0.00,CLR,,0.00,WeatherDisplay:10.37,2013-01-12 21:44:00,
2013-01-12 16:49:00,46.8,44.3,30.00,NE,45,2.3,0.0,91,0.00,CLR,,0.00,WeatherDisplay:10.37,2013-01-12 21:49:00,
2013-01-12 16:54:00,46.6,44.4,30.00,NE,45,4.6,4.6,92,0.00,CLR,,0.00,WeatherDisplay:10.37,2013-01-12 21:54:00,
2013-01-12 16:59:00,46.6,44.4,30.00,SE,135,3.5,3.5,92,0.00,CLR,,0.00,WeatherDisplay:10.37,2013-01-12 21:59:00,
2013-01-12 17:04:00,46.4,44.5,30.00,North,0,1.1,1.1,93,0.00,CLR,,0.00,WeatherDisplay:10.37,2013-01-12 22:04:00,
2013-01-12 17:09:00,46.4,44.5,30.00,NE,45,3.5,3.5,93,0.00,CLR,,0.00,WeatherDisplay:10.37,2013-01-12 22:09:00,
2013-01-12 17:14:00,46.2,44.3,30.01,NE,45,5.8,5.8,93,0.00,CLR,,0.00,WeatherDisplay:10.37,2013-01-12 22:14:00,
2013-01-12 17:19:00,46.0,44.4,30.01,North,0,3.5,0.0,94,0.00,CLR,,0.00,WeatherDisplay:10.37,2013-01-12 22:19:00,
2013-01-12 17:24:00,46.0,44.4,30.01,NE,45,2.3,2.3,94,0.00,CLR,,0.00,WeatherDisplay:10.37,2013-01-12 22:24:00,
2013-01-12 17:29:00,46.0,44.4,30.01,NW,315,2.3,0.0,94,0.00,CLR,,0.00,WeatherDisplay:10.37,2013-01-12 22:29:00,
2013-01-12 17:34:00,46.0,44.4,30.01,NE,45,2.3,2.3,94,0.00,CLR,,0.00,WeatherDisplay:10.37,2013-01-12 22:34:00,
2013-01-12 17:39:00,46.0,44.7,30.01,NE,45,3.5,3.5,95,0.00,CLR,,0.00,WeatherDisplay:10.37,2013-01-12 22:39:00,
2013-01-12 17:44:00,46.0,44.7,30.01,East,90,3.5,3.5,95,0.00,CLR,,0.00,WeatherDisplay:10.37,2013-01-12 22:44:00,
2013-01-12 17:49:00,46.2,44.9,30.01,NE,45,2.3,0.0,95,0.00,CLR,,0.00,WeatherDisplay:10.37,2013-01-12 22:49:00,
2013-01-12 17:54:00,46.2,44.9,30.02,NE,45,2.3,2.3,95,0.00,CLR,,0.00,WeatherDisplay:10.37,2013-01-12 22:54:00,
2013-01-12 17:59:00,46.2,45.1,30.02,NE,45,2.3,0.0,96,0.00,CLR,,0.00,WeatherDisplay:10.37,2013-01-12 22:59:00,
2013-01-12 18:04:00,46.2,45.1,30.02,NE,45,4.6,4.6,96,0.00,CLR,,0.00,WeatherDisplay:10.37,2013-01-12 23:04:00,
2013-01-12 18:09:00,46.2,45.1,30.02,NE,45,4.6,4.6,96,0.00,CLR,,0.00,WeatherDisplay:10.37,2013-01-12 23:09:00,
2013-01-12 18:14:00,46.0,45.0,30.02,NE,45,5.8,5.8,96,0.00,CLR,,0.00,WeatherDisplay:10.37,2013-01-12 23:14:00,
2013-01-12 18:19:00,46.0,45.2,30.03,NE,45,4.6,4.6,97,0.00,CLR,,0.00,WeatherDisplay:10.37,2013-01-12 23:19:00,
2013-01-12 18:24:00,46.0,45.2,30.03,NE,45,3.5,3.5,97,0.00,CLR,,0.00,WeatherDisplay:10.37,2013-01-12 23:24:00,
2013-01-12 18:29:00,46.0,45.2,30.03,NE,45,4.6,0.0,97,0.00,CLR,,0.00,WeatherDisplay:10.37,2013-01-12 23:29:00,
2013-01-12 18:34:00,46.0,45.2,30.03,NE,45,2.3,0.0,97,0.00,CLR,,0.00,WeatherDisplay:10.37,2013-01-12 23:34:00,
2013-01-12 18:39:00,46.0,45.5,30.02,NE,45,3.5,3.5,98,0.00,CLR,,0.00,WeatherDisplay:10.37,2013-01-12 23:39:00,
2013-01-12 18:44:00,46.0,45.5,30.03,NE,45,0.0,0.0,98,0.00,CLR,,0.00,WeatherDisplay:10.37,2013-01-12 23:44:00,
2013-01-12 18:49:00,46.0,45.5,30.03,NE,45,0.0,0.0,98,0.00,CLR,,0.00,WeatherDisplay:10.37,2013-01-12 23:49:00,
2013-01-12 18:54:00,46.0,45.5,30.03,NE,45,2.3,2.3,98,0.00,CLR,,0.00,WeatherDisplay:10.37,2013-01-12 23:54:00,
2013-01-12 18:59:00,46.0,45.5,30.02,East,90,3.5,0.0,98,0.00,CLR,,0.00,WeatherDisplay:10.37,2013-01-12 23:59:00,
2013-01-12 19:04:00,45.9,45.3,30.02,North,0,3.5,0.0,98,0.00,CLR,,0.00,WeatherDisplay:10.37,2013-01-13 00:04:00,
2013-01-12 19:09:00,45.7,45.1,30.01,SE,135,3.5,3.5,98,0.00,CLR,,0.00,WeatherDisplay:10.37,2013-01-13 00:09:00,
2013-01-12 19:15:00,45.7,45.1,30.02,NE,45,2.3,2.3,98,0.00,CLR,,0.00,WeatherDisplay:10.37,2013-01-13 00:15:00,
2013-01-12 19:20:00,45.7,45.1,30.02,SW,225,2.3,0.0,98,0.00,CLR,,0.00,WeatherDisplay:10.37,2013-01-13 00:20:00,
2013-01-12 19:25:00,45.7,45.1,30.01,East,90,1.1,0.0,98,0.00,CLR,,0.00,WeatherDisplay:10.37,2013-01-13 00:25:00,
2013-01-12 19:30:00,45.5,45.0,30.01,SE,135,0.0,0.0,98,0.00,CLR,,0.00,WeatherDisplay:10.37,2013-01-13 00:30:00,
2013-01-12 19:35:00,45.5,45.0,30.01,SE,135,0.7,0.0,98,0.00,CLR,,0.00,WeatherDisplay:10.37,2013-01-13 00:35:00,
2013-01-12 19:40:00,45.5,45.0,30.01,East,90,1.1,0.0,98,0.00,CLR,,0.00,WeatherDisplay:10.37,2013-01-13 00:40:00,
2013-01-12 19:45:00,45.5,45.0,30.00,NE,45,3.5,0.0,98,0.00,CLR,,0.00,WeatherDisplay:10.37,2013-01-13 00:45:00,
2013-01-12 19:50:00,45.5,45.0,30.01,NE,45,3.5,3.5,98,0.00,CLR,,0.00,WeatherDisplay:10.37,2013-01-13 00:50:00,
2013-01-12 19:55:00,45.5,45.0,30.01,NE,45,0.0,0.0,98,0.00,CLR,,0.00,WeatherDisplay:10.37,2013-01-13 00:55:00,
2013-01-12 20:00:00,45.5,45.0,30.01,South,180,1.1,0.0,98,0.00,CLR,,0.00,WeatherDisplay:10.37,2013-01-13 01:00:00,
2013-01-12 20:05:00,45.5,45.2,30.01,South,180,1.1,1.1,99,0.00,CLR,,0.00,WeatherDisplay:10.37,2013-01-13 01:05:00,
2013-01-12 20:10:00,45.3,45.1,30.01,NE,45,2.3,0.0,99,0.00,CLR,,0.00,WeatherDisplay:10.37,2013-01-13 01:10:00,
2013-01-12 20:15:00,45.3,45.1,30.01,NE,45,0.0,0.0,99,0.00,CLR,,0.00,WeatherDisplay:10.37,2013-01-13 01:15:00,
2013-01-12 20:20:00,45.3,45.1,30.01,North,0,0.0,0.0,99,0.00,CLR,,0.00,WeatherDisplay:10.37,2013-01-13 01:20:00,
2013-01-12 20:25:00,45.3,45.1,30.01,North,10,0.0,0.0,99,0.00,CLR,,0.00,WeatherDisplay:10.37,2013-01-13 01:25:00,
2013-01-12 20:30:00,45.3,45.1,30.01,North,0,0.0,0.0,99,0.00,CLR,,0.00,WeatherDisplay:10.37,2013-01-13 01:30:00,
2013-01-12 20:35:00,45.3,45.1,30.01,NE,45,1.1,0.0,99,0.00,CLR,,0.00,WeatherDisplay:10.37,2013-01-13 01:35:00,
2013-01-12 20:40:00,45.3,45.1,30.01,NW,315,2.3,0.0,99,0.00,CLR,,0.00,WeatherDisplay:10.37,2013-01-13 01:40:00,
2013-01-12 20:45:00,45.3,45.1,30.00,NW,315,0.0,0.0,99,0.00,CLR,,0.00,WeatherDisplay:10.37,2013-01-13 01:45:00,
2013-01-12 20:50:00,45.3,45.1,30.01,NW,315,0.0,0.0,99,0.00,CLR,,0.00,WeatherDisplay:10.37,2013-01-13 01:50:00,
2013-01-12 20:55:00,45.3,45.1,30.01,NW,315,0.0,0.0,99,0.00,CLR,,0.00,WeatherDisplay:10.37,2013-01-13 01:55:00,
2013-01-12 21:00:00,45.1,44.9,30.00,NW,315,1.1,0.0,99,0.00,CLR,,0.00,WeatherDisplay:10.37,2013-01-13 02:00:00,
2013-01-12 21:05:00,45.1,44.9,30.00,NW,315,2.3,0.0,99,0.00,CLR,,0.00,WeatherDisplay:10.37,2013-01-13 02:05:00,
2013-01-12 21:10:00,45.1,44.9,30.00,NW,309,0.0,0.0,99,0.00,CLR,,0.00,WeatherDisplay:10.37,2013-01-13 02:10:00,
2013-01-12 21:15:00,45.1,44.9,30.00,NW,315,0.0,0.0,99,0.00,CLR,,0.00,WeatherDisplay:10.37,2013-01-13 02:15:00,
2013-01-12 21:20:00,45.1,44.9,30.00,SE,135,0.0,0.0,99,0.00,CLR,,0.00,WeatherDisplay:10.37,2013-01-13 02:20:00,
2013-01-12 21:25:00,45.1,44.9,30.00,East,90,0.0,0.0,99,0.00,CLR,,0.00,WeatherDisplay:10.37,2013-01-13 02:25:00,
2013-01-12 21:30:00,45.1,44.9,30.00,East,90,0.0,0.0,99,0.00,CLR,,0.00,WeatherDisplay:10.37,2013-01-13 02:30:00,
2013-01-12 21:35:00,45.0,44.7,29.99,East,90,0.0,0.0,99,0.00,CLR,,0.00,WeatherDisplay:10.37,2013-01-13 02:35:00,
2013-01-12 21:40:00,45.0,44.7,29.99,East,90,0.0,0.0,99,0.00,CLR,,0.00,WeatherDisplay:10.37,2013-01-13 02:40:00,
2013-01-12 21:45:00,45.0,44.7,30.00,East,90,0.0,0.0,99,0.00,CLR,,0.00,WeatherDisplay:10.37,2013-01-13 02:45:00,
2013-01-12 21:50:00,45.0,44.7,29.99,East,90,0.0,0.0,99,0.00,CLR,,0.00,WeatherDisplay:10.37,2013-01-13 02:50:00,
2013-01-12 21:55:00,45.0,44.7,29.99,East,90,0.0,0.0,99,0.00,CLR,,0.00,WeatherDisplay:10.37,2013-01-13 02:55:00,
2013-01-12 22:00:00,45.0,44.7,29.99,East,90,0.0,0.0,99,0.00,CLR,,0.00,WeatherDisplay:10.37,2013-01-13 03:00:00,
2013-01-12 22:05:00,45.0,44.7,29.99,East,90,0.0,0.0,99,0.00,CLR,,0.00,WeatherDisplay:10.37,2013-01-13 03:05:00,
2013-01-12 22:10:00,45.1,44.9,29.99,East,90,0.0,0.0,99,0.00,CLR,,0.00,WeatherDisplay:10.37,2013-01-13 03:10:00,
2013-01-12 22:15:00,45.1,44.8,29.98,East,90,0.0,0.0,99,0.00,CLR,,0.00,WeatherDisplay:10.37,2013-01-13 03:15:00,
2013-01-12 22:20:00,45.1,44.8,29.99,East,90,0.0,0.0,99,0.00,CLR,,0.00,WeatherDisplay:10.37,2013-01-13 03:20:00,
2013-01-12 22:25:00,45.0,44.7,29.99,East,90,0.0,0.0,99,0.00,CLR,,0.00,WeatherDisplay:10.37,2013-01-13 03:25:00,
2013-01-12 22:30:00,45.0,44.7,29.99,East,90,0.0,0.0,99,0.00,CLR,,0.00,WeatherDisplay:10.37,2013-01-13 03:30:00,
2013-01-12 22:35:00,45.0,44.7,29.99,East,90,0.0,0.0,99,0.00,CLR,,0.00,WeatherDisplay:10.37,2013-01-13 03:35:00,
2013-01-12 22:40:00,45.0,44.7,29.99,East,90,0.0,0.0,99,0.00,CLR,,0.00,WeatherDisplay:10.37,2013-01-13 03:40:00,
2013-01-12 22:45:00,45.0,44.7,29.99,ENE,65,0.0,0.0,99,0.00,CLR,,0.00,WeatherDisplay:10.37,2013-01-13 03:45:00,
2013-01-12 22:50:00,45.0,44.7,29.99,East,90,0.0,0.0,99,0.00,CLR,,0.00,WeatherDisplay:10.37,2013-01-13 03:50:00,
2013-01-12 22:55:00,45.0,44.7,29.99,SW,225,0.0,0.0,99,0.00,CLR,,0.00,WeatherDisplay:10.37,2013-01-13 03:55:00,
2013-01-12 23:00:00,45.0,44.7,29.99,SSE,158,0.0,2.0,99,0.00,CLR,,0.00,WeatherDisplay:10.37,2013-01-13 04:00:00,
2013-01-12 23:05:00,45.0,44.7,29.99,SE,135,0.0,0.0,99,0.00,CLR,,0.00,WeatherDisplay:10.37,2013-01-13 04:05:00,
2013-01-12 23:10:00,45.0,44.7,29.99,East,90,0.0,0.7,99,0.00,CLR,,0.00,WeatherDisplay:10.37,2013-01-13 04:10:00,
2013-01-12 23:15:00,44.8,44.5,30.00,NNE,22,0.0,2.0,99,0.00,CLR,,0.00,WeatherDisplay:10.37,2013-01-13 04:15:00,
2013-01-12 23:20:00,44.8,44.5,30.00,East,90,3.5,0.0,99,0.00,CLR,,0.00,WeatherDisplay:10.37,2013-01-13 04:20:00,
2013-01-12 23:25:00,44.8,44.5,30.01,East,90,0.0,0.0,99,0.00,CLR,,0.00,WeatherDisplay:10.37,2013-01-13 04:25:00,
2013-01-12 23:30:00,44.6,44.3,30.00,East,90,0.0,0.0,99,0.00,CLR,,0.00,WeatherDisplay:10.37,2013-01-13 04:30:00,
2013-01-12 23:35:00,44.6,44.3,30.00,East,90,0.0,0.0,99,0.00,CLR,,0.00,WeatherDisplay:10.37,2013-01-13 04:35:00,
2013-01-12 23:40:00,44.6,44.3,30.00,East,90,0.0,0.0,99,0.00,CLR,,0.00,WeatherDisplay:10.37,2013-01-13 04:40:00,
2013-01-12 23:45:00,44.6,44.3,30.00,ESE,113,0.0,0.0,99,0.00,CLR,,0.00,WeatherDisplay:10.37,2013-01-13 04:45:00,
2013-01-12 23:50:00,44.6,44.3,30.00,West,270,0.0,0.0,99,0.00,CLR,,0.00,WeatherDisplay:10.37,2013-01-13 04:50:00,
2013-01-12 23:55:00,44.6,44.3,30.00,WSW,243,0.0,0.0,99,0.00,CLR,,0.00,WeatherDisplay:10.37,2013-01-13 04:55:00,